Torna al catalogo

STARLINK-34319

AttivoComunicazioniVLEO
NORAD 64268·PAYLOAD·🇺🇸 United States

Lanciato Jun 4, 2025 da Vandenberg Space Force Base

Loading…

Prossimi Passaggi (prossime 24 ore)

TLE

AggiornatoSource: CelesTrak SupGP

Epoca: Sep 14, 2026, 20:49 UTC

1 64268C 25120N   26257.86784722 -.00014876  00000+0 -43974-3 0  2576
2 64268  53.1583 312.3995 0001211  84.5093  99.2404 15.34382109    14

Traccia STARLINK-34319 in tempo reale con AllMySat

Download on the App Store